Cuernavaca, Mexico

5:11 AM CDT on April 26, 2017 (GMT -0500)
Cuernavaca

Weather History for MMCB - February, 2013

Change the Weather History Date:

Monday, February 18, 2013

  Actual Average Record
Temperature  
Mean Temperature 70 °F -  
Max Temperature 85 °F 85 °F 91 °F (2011)
Min Temperature 56 °F 60 °F 46 °F (2004)
Cooling Degree Days 6    
Growing Degree Days 20 (Base 50)    
Moisture  
Dew Point 41 °F    
Average Humidity 29    
Maximum Humidity 55    
Minimum Humidity 14    
Precipitation  
Precipitation 0.00 in - - ()
Sea Level Pressure  
Sea Level Pressure 29.99 in    
Wind  
Wind Speed 3 mph ()    
Max Wind Speed 9 mph    
Max Gust Speed -    
Visibility 12.8 miles    
Events      
Averages and records for this station are not official NWS values.
T = Trace of Precipitation, MM = Missing Value Source: Averaged Metar Reports

Daily Weather History Graph

Daily Weather History Graph

Search for Another Location

Airport or City:

Trip Planner

Search our weather history database for the weather conditions in past years. The results will help you decide how hot, cold, wet, or windy it might be!

Date:

Astronomy

Feb. 18, 2013 Rise Set
Actual Time 7:03 AM CST 6:38 PM CST
Civil Twilight 6:40 AM CST 7:01 PM CST
Nautical Twilight 6:15 AM CST 7:26 PM CST
Astronomical Twilight 5:49 AM CST 7:52 PM CST
Moon 12:48 PM CST (2/18) 1:23 AM CST (2/18)
Length of Visible Light 12h 20m
Length of Day
11h 35m
First Quarter, 58% of the Moon is Illuminated
Feb 18
First Quarter
Feb 25
Full
Mar 4
Last Quarter
Mar 11
New
Mar 19
First Quarter

Hourly Weather History & Observations

Time (CST) Temp. Dew Point Humidity Pressure Visibility Wind Dir Wind Speed Gust Speed Precip Events Conditions
5:58 AM 59.0 °F 41.0 °F 51% 30.12 in 10.0 mi North 4.6 mph - N/A   Clear
6:48 AM 57.2 °F 41.0 °F 55% 30.14 in 20.0 mi North 4.6 mph - N/A   Clear
7:44 AM 64.4 °F 41.0 °F 42% 30.16 in 15.0 mi Calm Calm - N/A   Clear
8:46 AM 71.6 °F 39.2 °F 31% 30.17 in 15.0 mi Calm Calm - N/A   Clear
9:00 AM 67 °F 48 °F 40%  in 12 mi Calm Calm - -  
9:47 AM 73.4 °F 42.8 °F 33% 30.18 in 15.0 mi SE 4.6 mph - N/A   Clear
10:40 AM 75.2 °F 41.0 °F 29% 30.17 in 15.0 mi East 8.1 mph - N/A   Clear
11:42 AM 77.0 °F 41.0 °F 28% 30.14 in 15.0 mi Calm Calm - N/A   Clear
11:50 AM 79 °F 55 °F 33% 29.88 in 12 mi South 2.2 mph - -  
12:47 PM 78.8 °F 39.2 °F 24% 30.10 in 12.0 mi SSE 6.9 mph - N/A   Clear
1:40 PM 82.4 °F 39.2 °F 21% 30.06 in 12.0 mi Calm Calm - N/A   Clear
2:47 PM 84.2 °F 35.6 °F 18% 30.01 in 12.0 mi SE 9.2 mph - N/A   Clear
2:50 PM 83 °F 56 °F 29% 29.75 in 12 mi South 2.2 mph - -  
3:50 PM 84.2 °F 32.0 °F 15% 29.98 in 12.0 mi ESE 5.8 mph - N/A   Clear
4:43 PM 86.0 °F 32.0 °F 14% 29.97 in 12.0 mi Calm Calm - N/A   Clear
5:47 PM 84.2 °F 32.0 °F 15% 29.98 in 15.0 mi ESE 4.6 mph - N/A   Clear
5:50 PM 81 °F 50 °F 23% 29.65 in 12 mi South 2.2 mph - -  
6:43 PM 82.4 °F 35.6 °F 19% 29.99 in 10.0 mi ENE 3.5 mph - N/A   Clear
7:45 PM 75.2 °F 35.6 °F 24% 30.01 in 8.0 mi North 6.9 mph - N/A   Clear
8:40 PM 72 °F 44 °F 26% 29.66 in 11 mi North 2.2 mph - -  
11:40 PM 68 °F 43 °F 29% 29.71 in 11 mi North 2.2 mph - -